Weather History for Basrah, Iraq

Change the Weather History Date:

Wednesday, February 13, 2013

  Actual Average Record
Temperature  
Mean Temperature 56 °F -  
Max Temperature 71 °F - - ()
Min Temperature 41 °F - - ()
Degree Days  
Heating Degree Days 9    
Growing Degree Days 6 (Base 50)    
Moisture  
Dew Point 43 °F    
Average Humidity 52    
Maximum Humidity 81    
Minimum Humidity 17    
Precipitation  
Precipitation 0.00 in - - ()
Sea Level Pressure  
Sea Level Pressure 30.09 in    
Wind  
Wind Speed 13 mph ()    
Max Wind Speed 23 mph    
Max Gust Speed -    
Visibility 6.0 miles    
Events      
T = Trace of Precipitation, MM = Missing Value Source: Averaged Metar Reports

Daily Weather History Graph

Daily Weather History Graph

Search for Another Location

Airport:

Trip Planner

Search our weather history database for the weather conditions in past years. The results will help you decide how hot, cold, wet, or windy it might be!

Date:

Astronomy

Feb. 13, 2013 Rise Set
Actual Time 6:31 AM AST 5:35 PM AST
Civil Twilight 6:06 AM AST 6:00 PM AST
Nautical Twilight 5:38 AM AST 6:28 PM AST
Astronomical Twilight 5:10 AM AST 6:56 PM AST
Moon 8:05 AM AST (2/13) 8:54 PM AST (2/13)
Length of Visible Light 11h 53m
Length of Day
11h 04m
Waxing Crescent, 11% of the Moon is Illuminated
Feb 13
Waxing Crescent
Feb 17
First Quarter
Feb 25
Full
Mar 5
Last Quarter
Mar 11
New

Hourly Weather History & Observations

Time (AST) Temp. Dew Point Humidity Pressure Visibility Wind Dir Wind Speed Gust Speed Precip Events Conditions
12:00 AM 62.6 °F 51.8 °F 68% 30.04 in - NW 17.3 mph - N/A   Clear
1:00 AM 66.2 °F 48.2 °F 52% 30.04 in - NW 15.0 mph - N/A   Clear
2:00 AM 59.0 °F 48.2 °F 67% 30.04 in - WNW 16.1 mph - N/A   Clear
3:00 AM 58 °F 46 °F 55% 30.05 in 6 mi WNW 20.1 mph - -  
3:00 AM 59.0 °F 48.2 °F 67% 30.04 in - NW 16.1 mph - N/A   Clear
4:00 AM 57.2 °F 48.2 °F 72% 30.06 in - NW 13.8 mph - N/A   Clear
5:00 AM 53.6 °F 46.4 °F 77% 30.06 in - NW 9.2 mph - N/A   Clear
6:00 AM 55 °F 50 °F 77% 30.09 in 6 mi West 11.2 mph - -  
6:00 AM 51.8 °F 44.6 °F 76% 30.09 in - WNW 9.2 mph - N/A   Clear
7:00 AM 41.0 °F 35.6 °F 81% 30.12 in - Calm Calm - N/A   Clear
8:00 AM 55.4 °F 48.2 °F 77% 30.12 in - West 11.5 mph - N/A   Clear
9:00 AM 59 °F 46 °F 51% 30.13 in 6 mi WNW 13.4 mph - -  
9:00 AM 60.8 °F 48.2 °F 63% 30.12 in - WNW 21.9 mph - N/A   Clear
10:00 AM 64.4 °F 42.8 °F 45% 30.12 in - WNW 20.7 mph - N/A   Clear
11:00 AM 66.2 °F 41.0 °F 40% 30.12 in - WNW 20.7 mph - N/A   Clear
12:00 PM 67 °F 33 °F 18% 30.12 in 6 mi NNW 11.5 mph - -  
12:00 PM 68.0 °F 39.2 °F 35% 30.12 in - NW 18.4 mph - N/A   Clear
1:00 PM - - N/A% - - North - - N/A   Clear
2:00 PM 71.6 °F 37.4 °F 29% 30.09 in - NW 23.0 mph - N/A   Clear
3:00 PM 70 °F 35 °F 17% 30.08 in 6 mi WNW 22.4 mph - -  
3:00 PM 71.6 °F 37.4 °F 29% 30.06 in - NW 2.3 mph - N/A   Clear
4:00 PM 71.6 °F 37.4 °F 29% 30.06 in - NW 20.7 mph - N/A   Clear
5:00 PM 66.2 °F 39.2 °F 37% 30.06 in - NW 13.8 mph - N/A   Clear
6:00 PM 66 °F 39 °F 26% 30.08 in 6 mi WNW 17.9 mph - -  
6:00 PM 64.4 °F 39.2 °F 40% 30.15 in - NW 10.4 mph - N/A   Clear
7:00 PM 64.4 °F 42.8 °F 45% 30.09 in - NW 10.4 mph - N/A   Clear
8:00 PM 62.6 °F 44.6 °F 52% 30.09 in - WNW 12.7 mph - N/A   Clear
9:00 PM 62 °F 46 °F 45% 30.11 in 6 mi WNW 13.4 mph - -  
9:00 PM 60.8 °F 46.4 °F 59% 30.12 in - NW 13.8 mph - N/A   Clear
10:00 PM 59.0 °F 46.4 °F 63% 30.12 in - NW 12.7 mph - N/A   Clear
11:00 PM 59.0 °F 46.4 °F 63% 30.12 in - NW 12.7 mph - N/A   Clear